Location: White Rock
(35.8256°N, 106.1876°W)
Time: 00:25:08
(UTC-07:00)

OTV 5 (USA 277) - Visible Passes

Search period start: 24 January 2019 00:00
Search period end: 03 February 2019 00:00
Orbit: 339 x 349 km, 54.5° (Epoch: 15 January)

Date Brightness Start Highest point End Pass type
(mag) Time Alt. Az. Time Alt. Az. Time Alt. Az.
24 Jan ? 06:41:35 10° SW 06:44:28 84° NW 06:47:22 10° NE visible
25 Jan ? 05:31:13 10° S 05:33:24 20° SE 05:35:38 10° ENE visible
26 Jan ? 05:55:10 22° SW 05:56:54 90° N 05:59:49 10° NE visible
27 Jan ? 04:47:46 11° E 04:47:46 11° E 04:47:59 10° ENE visible
27 Jan ? 06:19:16 17° WNW 06:20:38 23° NW 06:23:03 10° NNE visible
28 Jan ? 05:11:29 17° NE 05:11:29 17° NE 05:12:15 10° NE visible
29 Jan ? 05:34:55 14° N 05:34:55 14° N 05:35:31 10° NNE visible
